TimeCST,TemperatureF,Dew PointF,Humidity,Sea Level PressureIn,VisibilityMPH,Wind Direction,Wind SpeedMPH,Gust SpeedMPH,PrecipitationIn,Events,Conditions,WindDirDegrees,DateUTC
12:15 AM,37.4,33.8,87,30.26,10.0,Calm,Calm,-,N/A,,Clear,0,2013-03-08 06:15:00
12:35 AM,37.4,33.8,87,30.26,10.0,Calm,Calm,-,N/A,,Clear,0,2013-03-08 06:35:00
12:55 AM,37.4,33.8,87,30.27,10.0,Calm,Calm,-,N/A,,Clear,0,2013-03-08 06:55:00
1:15 AM,37.4,33.8,87,30.26,10.0,Calm,Calm,-,N/A,,Clear,0,2013-03-08 07:15:00
1:35 AM,37.4,33.8,87,30.26,10.0,Calm,Calm,-,N/A,,Clear,0,2013-03-08 07:35:00
1:55 AM,35.6,33.8,93,30.26,8.0,Calm,Calm,-,N/A,,Clear,0,2013-03-08 07:55:00
2:15 AM,35.6,30.2,81,30.26,8.0,Calm,Calm,-,N/A,,Clear,0,2013-03-08 08:15:00
2:35 AM,35.6,33.8,93,30.26,7.0,Calm,Calm,-,N/A,,Clear,0,2013-03-08 08:35:00
2:55 AM,35.6,30.2,81,30.26,7.0,Calm,Calm,-,N/A,,Clear,0,2013-03-08 08:55:00
3:15 AM,35.6,32.0,87,30.26,6.0,Calm,Calm,-,N/A,,Clear,0,2013-03-08 09:15:00
3:35 AM,35.6,30.2,81,30.26,5.0,Calm,Calm,-,N/A,,Clear,0,2013-03-08 09:35:00
3:55 AM,33.8,30.2,87,30.26,6.0,Calm,Calm,-,N/A,,Clear,0,2013-03-08 09:55:00
4:15 AM,33.8,30.2,87,30.26,5.0,Calm,Calm,-,N/A,,Clear,0,2013-03-08 10:15:00
4:35 AM,33.8,30.2,87,30.27,4.0,Calm,Calm,-,N/A,,Clear,0,2013-03-08 10:35:00
4:55 AM,33.8,30.2,87,30.28,5.0,Calm,Calm,-,N/A,,Clear,0,2013-03-08 10:55:00
5:15 AM,33.8,30.2,87,30.28,5.0,Calm,Calm,-,N/A,,Clear,0,2013-03-08 11:15:00
5:35 AM,33.8,28.4,81,30.28,3.0,Calm,Calm,-,N/A,,Clear,0,2013-03-08 11:35:00
5:55 AM,33.8,30.2,87,30.28,4.0,Calm,Calm,-,N/A,,Clear,0,2013-03-08 11:55:00
6:15 AM,33.8,30.2,87,30.30,2.0,Calm,Calm,-,N/A,,Clear,0,2013-03-08 12:15:00
6:35 AM,33.8,28.4,81,30.30,2.5,NNW,3.5,-,N/A,,Clear,340,2013-03-08 12:35:00
6:55 AM,35.6,32.0,87,30.31,5.0,North,3.5,-,N/A,,Clear,10,2013-03-08 12:55:00
7:15 AM,39.2,35.6,87,30.32,9.0,NNE,6.9,-,N/A,,Clear,20,2013-03-08 13:15:00
7:35 AM,42.8,35.6,76,30.33,10.0,NNE,5.8,-,N/A,,Clear,30,2013-03-08 13:35:00
7:55 AM,44.6,33.8,66,30.33,10.0,NNE,4.6,-,N/A,,Clear,30,2013-03-08 13:55:00
8:15 AM,46.4,35.6,66,30.32,10.0,NE,6.9,-,N/A,,Clear,50,2013-03-08 14:15:00
8:55 AM,50.0,37.4,62,30.33,10.0,ENE,4.6,-,N/A,,Clear,60,2013-03-08 14:55:00
9:15 AM,51.8,35.6,54,30.34,10.0,Calm,Calm,-,N/A,,Clear,0,2013-03-08 15:15:00
9:35 AM,55.4,35.6,47,30.34,10.0,East,3.5,-,N/A,,Clear,90,2013-03-08 15:35:00
9:55 AM,55.4,33.8,44,30.33,10.0,ENE,5.8,-,N/A,,Clear,70,2013-03-08 15:55:00
10:15 AM,59.0,35.6,42,30.32,10.0,NNE,5.8,-,N/A,,Clear,20,2013-03-08 16:15:00
10:35 AM,60.8,35.6,39,30.32,10.0,NE,4.6,-,N/A,,Clear,40,2013-03-08 16:35:00
10:55 AM,62.6,35.6,37,30.32,10.0,Calm,Calm,-,N/A,,Clear,0,2013-03-08 16:55:00
11:15 AM,62.6,33.8,34,30.32,10.0,East,5.8,-,N/A,,Clear,80,2013-03-08 17:15:00
11:35 AM,64.4,33.8,32,30.32,10.0,North,3.5,-,N/A,,Clear,10,2013-03-08 17:35:00
11:55 AM,64.4,33.8,32,30.31,10.0,NE,3.5,-,N/A,,Clear,50,2013-03-08 17:55:00
12:15 PM,66.2,35.6,32,30.29,10.0,NE,8.1,-,N/A,,Clear,40,2013-03-08 18:15:00
12:35 PM,66.2,33.8,30,30.28,10.0,ESE,5.8,-,N/A,,Clear,120,2013-03-08 18:35:00
12:55 PM,66.2,33.8,30,30.26,10.0,East,3.5,-,N/A,,Clear,80,2013-03-08 18:55:00
1:15 PM,68.0,33.8,28,30.26,10.0,NNW,4.6,-,N/A,,Clear,330,2013-03-08 19:15:00
1:35 PM,68.0,32.0,26,30.25,10.0,ESE,3.5,-,N/A,,Clear,110,2013-03-08 19:35:00
1:55 PM,69.8,32.0,25,30.25,10.0,North,3.5,-,N/A,,Clear,360,2013-03-08 19:55:00
2:15 PM,68.0,30.2,24,30.24,10.0,East,5.8,-,N/A,,Clear,80,2013-03-08 20:15:00
2:35 PM,69.8,30.2,23,30.23,10.0,SE,6.9,-,N/A,,Clear,140,2013-03-08 20:35:00
2:55 PM,69.8,30.2,23,30.22,10.0,Calm,Calm,-,N/A,,Clear,0,2013-03-08 20:55:00
3:15 PM,69.8,30.2,23,30.22,10.0,East,3.5,-,N/A,,Clear,80,2013-03-08 21:15:00
3:35 PM,69.8,28.4,21,30.22,10.0,NE,3.5,-,N/A,,Clear,50,2013-03-08 21:35:00
3:55 PM,69.8,28.4,21,30.22,10.0,NE,3.5,-,N/A,,Clear,50,2013-03-08 21:55:00
4:15 PM,68.0,30.2,24,30.22,10.0,ENE,3.5,-,N/A,,Clear,60,2013-03-08 22:15:00
4:35 PM,68.0,32.0,26,30.22,10.0,Calm,Calm,-,N/A,,Clear,0,2013-03-08 22:35:00
4:55 PM,68.0,30.2,24,30.22,10.0,NE,3.5,-,N/A,,Clear,40,2013-03-08 22:55:00
5:15 PM,68.0,30.2,24,30.22,10.0,North,3.5,-,N/A,,Clear,10,2013-03-08 23:15:00
5:35 PM,64.4,39.2,40,30.22,10.0,Calm,Calm,-,N/A,,Clear,0,2013-03-08 23:35:00
5:55 PM,62.6,41.0,45,30.22,10.0,Calm,Calm,-,N/A,,Clear,0,2013-03-08 23:55:00
6:15 PM,57.2,42.8,59,30.22,10.0,Calm,Calm,-,N/A,,Clear,0,2013-03-09 00:15:00
6:35 PM,57.2,42.8,59,30.21,10.0,Calm,Calm,-,N/A,,Clear,0,2013-03-09 00:35:00
6:55 PM,53.6,39.2,58,30.21,10.0,Calm,Calm,-,N/A,,Clear,0,2013-03-09 00:55:00
7:15 PM,51.8,39.2,62,30.21,10.0,Calm,Calm,-,N/A,,Clear,0,2013-03-09 01:15:00
7:35 PM,51.8,39.2,62,30.21,10.0,Calm,Calm,-,N/A,,Clear,0,2013-03-09 01:35:00
7:55 PM,51.8,39.2,62,30.21,10.0,Calm,Calm,-,N/A,,Clear,0,2013-03-09 01:55:00
8:15 PM,50.0,39.2,66,30.21,10.0,Calm,Calm,-,N/A,,Clear,0,2013-03-09 02:15:00
8:35 PM,51.8,41.0,67,30.21,10.0,Calm,Calm,-,N/A,,Clear,0,2013-03-09 02:35:00
8:55 PM,51.8,41.0,67,30.21,10.0,Calm,Calm,-,N/A,,Clear,0,2013-03-09 02:55:00
9:15 PM,50.0,39.2,66,30.21,10.0,Calm,Calm,-,N/A,,Clear,0,2013-03-09 03:15:00
9:35 PM,51.8,39.2,62,30.22,10.0,Calm,Calm,-,N/A,,Clear,0,2013-03-09 03:35:00
9:55 PM,48.2,39.2,71,30.23,10.0,South,4.6,-,N/A,,Clear,190,2013-03-09 03:55:00
10:15 PM,48.2,39.2,71,30.23,10.0,Calm,Calm,-,N/A,,Clear,0,2013-03-09 04:15:00
10:35 PM,51.8,41.0,67,30.22,10.0,Calm,Calm,-,N/A,,Clear,0,2013-03-09 04:35:00
10:55 PM,51.8,41.0,67,30.22,10.0,Calm,Calm,-,N/A,,Clear,0,2013-03-09 04:55:00
11:15 PM,51.8,41.0,67,30.22,10.0,Calm,Calm,-,N/A,,Clear,0,2013-03-09 05:15:00
11:35 PM,48.2,41.0,76,30.21,10.0,Calm,Calm,-,N/A,,Clear,0,2013-03-09 05:35:00
11:55 PM,48.2,41.0,76,30.21,10.0,Calm,Calm,-,N/A,,Clear,0,2013-03-09 05:55:00